sat.trackr.live / text

‹ back to catalog

GALAXY 31 (G-31)

NORAD 54243 · 2022-153A

PAYLOAD ACTIVE UNKNOWN

§ Identity

Operator
Country
ITSO
Launch date
2022-11-12
Launch site
AFETR
Launch vehicle
Mass (kg)
RCS (m²)

Purposes: comms

External: N2YO · Heavens-Above · Gunter

§ Orbital elements

Epoch: 2026-05-25T03:42:38.615040Z

Period
1,436.09 min
Inclination
0.0433°
Eccentricity
0.0001343
Mean motion
1.00271922 rev/d
Perigee alt
35,780.9 km
Apogee alt
35,792.2 km
Semi-major
42,164.7 km
B*
0.0000e+0
RAAN
107.8970°
Arg perigee
311.2572°
Mean anomaly
118.2504°
Rev number
690

§ Raw data

GALAXY 31 (G-31)1 54243U 22153A   26145.15461360  .00000011  00000+0  00000+0 0  99952 54243   0.0433 107.8970 0001343 311.2572 118.2504  1.00271922  6904

JSON: /api/v1/satellites/54243 · /tle

For live sub-satellite position, see the globe view (requires WebGL).

§ Visibility from observer

Set your observer location to see the next 7 days of passes ≥ 10°. The values pass through the URL so the page stays shareable.

No JS? Fill the form by hand. The geolocation button needs JavaScript.